1486400400.38,8288,11.69,72806.0,-6.39,-13.87,-13.61,0,*6E
1486400401.61,8289,11.69,72800.5,-6.39,-13.97,-13.55,0,*69
1486400402.86,8290,11.69,72802.0,-6.39,-13.87,-13.61,0,*67
1486400404.09,8291,11.69,72796.8,-6.39,-13.87,-13.69,0,*6E
1486400405.35,8292,11.69,72802.0,-6.39,-13.83,-13.61,0,*61
1486400406.6,8293,11.69,72802.0,-6.39,-13.87,-13.61,0,*64
1486400407.86,8294,11.69,72802.3,-6.39,-13.97,-13.61,0,*62
1486400409.11,8295,11.69,72800.0,-6.39,-13.87,-13.61,0,*62
1486400410.39,8296,11.69,72798.3,-6.41,-13.87,-13.61,0,*6E
1486400411.65,8297,11.69,72798.8,-6.39,-13.83,-13.61,0,*64
1486400412.87,8298,11.69,72800.5,-6.39,-13.87,-13.69,0,*67
1486400414.12,8299,11.69,72796.8,-6.39,-13.87,-13.61,0,*6E
1486400415.34,8300,11.69,72802.0,-6.39,-13.87,-13.69,0,*67
1486400416.56,8301,11.69,72800.5,-6.39,-13.87,-13.69,0,*66
1486400417.79,8302,11.69,72802.3,-6.39,-13.87,-13.73,0,*6E
1486400419.01,8303,11.69,72800.0,-6.39,-13.87,-13.69,0,*64
1486400420.23,8304,11.69,72800.3,-6.39,-13.87,-13.69,0,*63
1486400421.45,8305,11.69,72802.3,-6.39,-13.87,-13.73,0,*69
1486400422.71,8306,11.69,72802.3,-6.41,-13.97,-13.69,0,*6F
1486400423.94,8307,11.69,72800.8,-6.39,-13.97,-13.73,0,*6A
1486400425.17,8308,11.69,72798.5,-6.39,-13.97,-13.73,0,*65
1486400426.4,8309,11.69,72800.5,-6.39,-13.97,-13.73,0,*64
1486400427.63,8310,11.69,72806.0,-6.39,-13.97,-13.73,0,*6C
1486400428.86,8311,11.69,72802.0,-6.39,-13.97,-13.73,0,*6D
1486400430.12,8312,11.69,72800.8,-6.41,-13.97,-13.73,0,*61
1486400431.34,8313,11.69,72800.0,-6.39,-13.87,-13.69,0,*65
1486400432.57,8314,11.69,72800.5,-6.39,-13.97,-13.73,0,*68
1486400433.8,8315,11.69,72800.5,-6.39,-13.97,-13.73,0,*69
1486400435.05,8316,11.69,72802.3,-6.41,-13.97,-13.73,0,*65
1486400436.29,8317,11.69,72802.5,-6.39,-13.97,-13.73,0,*6B
1486400437.54,8318,11.69,72800.3,-6.41,-14.01,-13.73,0,*63
1486400438.82,8319,11.69,72800.0,-6.41,-14.01,-13.83,0,*6D
1486400440.05,8320,11.69,72802.5,-6.39,-13.97,-13.73,0,*6F
1486400441.3,8321,11.69,72800.3,-6.41,-13.97,-13.73,0,*61
1486400442.56,8322,11.69,72802.0,-6.41,-13.97,-13.73,0,*62
1486400443.81,8323,11.69,72802.0,-6.41,-13.97,-13.73,0,*63
1486400445.09,8324,11.69,72804.5,-6.41,-13.97,-13.83,0,*6B
1486400446.37,8325,11.69,72802.5,-6.41,-14.01,-13.83,0,*62
1486400447.6,8326,11.69,72802.3,-6.39,-13.97,-13.73,0,*69
1486400448.85,8327,11.69,72800.3,-6.41,-13.97,-13.73,0,*67
1486400450.11,8328,11.69,72802.8,-6.41,-14.01,-13.73,0,*60
1486400451.39,8329,11.69,72804.0,-6.41,-14.01,-13.83,0,*6E
1486400452.64,8330,11.69,72802.8,-6.39,-14.01,-13.83,0,*69
1486400453.9,8331,11.69,72800.8,-6.41,-13.97,-13.73,0,*60
1486400455.18,8332,11.69,72800.5,-6.41,-14.01,-13.83,0,*64
1486400456.41,8333,11.69,72802.3,-6.39,-14.01,-13.73,0,*65
1486400457.69,8334,11.69,72802.3,-6.41,-14.01,-13.83,0,*62
1486400458.96,8335,11.69,72802.0,-6.41,-14.01,-13.87,0,*67
1486400460.22,8336,11.69,72804.3,-6.39,-14.01,-13.87,0,*6B
1486400461.47,8337,11.69,72804.0,-6.39,-13.97,-13.83,0,*66
1486400462.75,8338,11.69,72802.8,-6.41,-14.01,-13.83,0,*6E
1486400464.01,8339,11.69,72804.5,-6.41,-13.97,-13.73,0,*68
1486400465.28,8340,11.69,72802.8,-6.41,-14.01,-13.83,0,*61
1486400466.56,8341,11.69,72804.0,-6.41,-14.01,-13.83,0,*60
1486400467.84,8342,11.69,72802.8,-6.41,-13.97,-13.83,0,*6B
1486400469.12,8343,11.69,72806.3,-6.41,-14.01,-13.87,0,*66
1486400470.34,8344,11.69,72802.3,-6.43,-14.05,-13.93,0,*62
1486400471.6,8345,11.69,72804.8,-6.43,-14.05,-13.87,0,*66
1486400472.82,8346,11.69,72804.5,-6.43,-14.05,-13.93,0,*60
1486400474.08,8347,11.69,72806.3,-6.39,-14.01,-13.87,0,*6D
1486400475.33,8348,11.69,72804.0,-6.41,-13.97,-13.73,0,*6E
1486400476.61,8349,11.69,72802.5,-6.41,-14.01,-13.83,0,*68
1486400477.89,8350,11.69,72804.3,-6.41,-14.01,-13.83,0,*60
1486400479.12,8351,11.69,72802.8,-6.43,-14.15,-13.87,0,*62
1486400480.37,8352,11.69,72802.5,-6.39,-14.01,-13.87,0,*69
1486400481.62,8353,11.69,72804.0,-6.41,-14.11,-13.83,0,*62
1486400482.87,8354,11.69,72802.5,-6.41,-14.11,-13.87,0,*61
1486400484.12,8355,11.69,72804.8,-6.41,-14.11,-13.87,0,*60
1486400485.4,8356,11.69,72800.8,-6.41,-14.01,-13.87,0,*62
1486400486.68,8357,11.69,72802.5,-6.41,-13.97,-13.87,0,*6B
1486400487.96,8358,11.69,72800.0,-6.41,-14.01,-13.87,0,*6C
1486400489.24,8359,11.69,72802.8,-6.41,-14.01,-13.87,0,*6D
1486400490.51,8360,11.69,72802.8,-6.41,-14.01,-13.83,0,*63
1486400491.77,8361,11.69,72802.5,-6.39,-14.01,-13.83,0,*6D
1486400493.05,8362,11.69,72804.3,-6.41,-14.01,-13.87,0,*65
1486400494.3,8363,11.69,72804.0,-6.41,-14.11,-13.87,0,*65
1486400495.55,8364,11.69,72800.8,-6.41,-14.11,-13.83,0,*66
1486400496.83,8365,11.69,72802.3,-6.41,-14.01,-13.87,0,*62
1486400498.11,8366,11.69,72804.5,-6.41,-14.01,-13.87,0,*61
1486400499.38,8367,11.69,72800.8,-6.41,-13.97,-13.87,0,*68
1486400500.64,8368,11.69,72802.0,-6.41,-14.11,-13.87,0,*6E
1486400501.92,8369,11.69,72804.0,-6.41,-13.97,-13.83,0,*62
1486400503.19,8370,11.69,72804.0,-6.41,-14.01,-13.87,0,*66
1486400504.47,8371,11.69,72806.3,-6.41,-14.01,-13.83,0,*63
1486400505.7,8372,11.69,72800.8,-6.43,-14.15,-13.87,0,*63
1486400506.95,8373,11.69,72806.5,-6.43,-14.05,-13.87,0,*63
1486400508.18,8374,11.69,72806.3,-6.43,-14.05,-13.93,0,*61
1486400509.38,8375,11.69,72806.8,-6.43,-14.15,-13.93,0,*61
1486400510.63,8376,11.69,72804.0,-6.43,-14.05,-13.87,0,*66
1486400511.86,8377,11.69,72804.0,-6.43,-14.05,-13.93,0,*62
1486400513.06,8378,11.69,72802.3,-6.43,-14.15,-13.93,0,*6C
1486400514.26,8379,11.69,72800.0,-6.43,-14.15,-13.93,0,*6D
1486400515.49,8380,11.69,72804.0,-6.43,-14.15,-13.87,0,*6E
1486400516.69,8381,11.69,72804.5,-6.43,-14.19,-13.93,0,*66
1486400517.9,8382,11.69,72804.8,-6.43,-14.15,-13.93,0,*69
1486400519.12,8383,11.69,72804.3,-6.43,-14.05,-13.93,0,*69
1486400520.35,8384,11.69,72804.3,-6.43,-14.05,-13.93,0,*6E
1486400521.58,8385,11.69,72800.3,-6.45,-14.15,-13.93,0,*68
1486400522.78,8386,11.69,72804.5,-6.43,-14.15,-13.93,0,*6D
1486400523.98,8387,11.69,72806.8,-6.43,-14.15,-13.93,0,*6C
1486400525.23,8388,11.69,72804.0,-6.41,-14.11,-13.87,0,*60
1486400526.48,8389,11.69,72806.5,-6.41,-14.11,-13.87,0,*61
1486400527.76,8390,11.69,72800.3,-6.41,-13.97,-13.87,0,*60
1486400529.04,8391,11.69,72802.0,-6.41,-14.01,-13.83,0,*6D
1486400530.29,8392,11.69,72806.0,-6.43,-14.05,-13.87,0,*6C
1486400531.54,8393,11.69,72806.5,-6.43,-14.05,-13.87,0,*6D
1486400532.77,8394,11.69,72804.5,-6.43,-14.15,-13.87,0,*6B
1486400533.98,8395,11.69,72804.0,-6.43,-14.15,-13.93,0,*6F
1486400535.23,8396,11.69,72802.8,-6.45,-14.15,-13.87,0,*6F
1486400536.48,8397,11.69,72802.5,-6.41,-14.11,-13.87,0,*6E
1486400537.74,8398,11.69,72804.0,-6.41,-14.15,-13.87,0,*65
1486400538.94,8399,11.69,72802.5,-6.43,-14.15,-13.93,0,*63
1486400540.17,8400,11.69,72802.3,-6.43,-14.05,-13.93,0,*65
1486400541.37,8401,11.69,72804.8,-6.43,-14.15,-13.93,0,*65
1486400542.57,8402,11.69,72800.8,-6.43,-14.15,-13.93,0,*66
1486400543.78,8403,11.69,72806.0,-6.43,-14.15,-13.93,0,*67
1486400544.98,8404,11.69,72800.3,-6.43,-14.15,-13.93,0,*60
1486400546.18,8405,11.69,72802.3,-6.43,-14.15,-13.93,0,*61
1486400547.43,8406,11.69,72804.0,-6.45,-14.05,-13.93,0,*65
1486400548.64,8407,11.69,72800.3,-6.43,-14.15,-13.93,0,*63
1486400549.87,8408,11.69,72806.3,-6.45,-14.15,-13.93,0,*6A
1486400551.07,8409,11.69,72804.3,-6.43,-14.15,-13.93,0,*6D
1486400552.27,8410,11.69,72806.8,-6.43,-14.15,-13.93,0,*65
1486400553.47,8411,11.69,72804.0,-6.43,-14.15,-13.93,0,*64
1486400554.68,8412,11.69,72800.8,-6.43,-14.15,-13.93,0,*67
1486400555.88,8413,11.69,72806.5,-6.43,-14.15,-13.93,0,*66
1486400557.13,8414,11.69,72804.8,-6.41,-14.11,-13.87,0,*62
1486400558.36,8415,11.69,72800.8,-6.45,-14.19,-13.93,0,*6A
1486400559.56,8416,11.69,72804.0,-6.43,-14.19,-13.93,0,*6F
1486400560.76,8417,11.69,72802.5,-6.43,-14.15,-13.93,0,*62
1486400561.96,8418,11.69,72804.0,-6.43,-14.15,-13.93,0,*6D
1486400563.19,8419,11.69,72802.5,-6.43,-14.01,-13.93,0,*69
1486400564.41,8420,11.69,72804.0,-6.43,-14.05,-13.93,0,*67
1486400565.66,8421,11.69,72804.0,-6.43,-14.05,-13.87,0,*63
1486400566.87,8422,11.69,72804.0,-6.43,-14.15,-13.93,0,*64
1486400568.07,8423,11.69,72806.3,-6.43,-14.15,-13.93,0,*65
1486400569.27,8424,11.69,72806.8,-6.43,-14.15,-13.93,0,*62
1486400570.51,8425,11.69,72804.0,-6.43,-14.15,-14.01,0,*6F
1486400571.74,8426,11.69,72800.3,-6.43,-14.19,-14.01,0,*60
1486400573.0,8427,11.69,72804.8,-6.45,-14.19,-14.01,0,*67
1486400574.27,8428,11.69,72804.5,-6.45,-14.15,-14.01,0,*64
1486400575.5,8429,11.69,72802.3,-6.43,-14.19,-14.01,0,*6F
1486400576.73,8430,11.69,72804.3,-6.43,-14.15,-14.05,0,*6F
1486400578.0,8431,11.69,72806.5,-6.41,-14.15,-13.97,0,*60
1486400579.26,8432,11.69,72808.3,-6.41,-14.11,-13.97,0,*67
1486400580.52,8433,11.69,72804.3,-6.41,-14.15,-13.97,0,*62
1486400581.75,8434,11.69,72802.8,-6.43,-14.19,-14.01,0,*63
1486400582.98,8435,11.69,72806.3,-6.43,-14.19,-14.05,0,*66
1486400584.27,8436,11.69,72806.5,-6.45,-14.01,-14.01,0,*6E
1486400585.51,8437,11.69,72802.0,-6.43,-14.15,-14.01,0,*6C
1486400586.74,8438,11.69,72802.8,-6.43,-14.19,-14.01,0,*6F
1486400588.0,8439,11.69,72802.8,-6.45,-14.15,-14.01,0,*64
1486400589.27,8440,11.69,72804.0,-6.45,-14.15,-14.01,0,*6A
1486400590.5,8441,11.69,72806.5,-6.43,-14.19,-14.01,0,*61
1486400591.73,8442,11.69,72806.8,-6.43,-14.19,-14.01,0,*62
1486400592.97,8443,11.69,72804.0,-6.43,-14.15,-14.01,0,*6F
1486400594.21,8444,11.69,72804.8,-6.43,-14.15,-14.01,0,*68
1486400595.44,8445,11.69,72806.5,-6.43,-14.15,-14.01,0,*69
1486400596.68,8446,11.69,72802.5,-6.43,-14.19,-14.01,0,*66
1486400597.93,8447,11.69,72806.8,-6.45,-14.19,-14.05,0,*65
1486400599.14,8448,11.69,72804.8,-6.43,-14.15,-13.93,0,*68
1486400600.39,8449,11.69,72804.3,-6.43,-14.05,-14.05,0,*60
1486400601.63,8450,11.69,72804.3,-6.43,-14.15,-14.01,0,*6D
1486400602.87,8451,11.69,72804.0,-6.43,-14.15,-14.01,0,*6C
1486400604.1,8452,11.69,72806.3,-6.43,-14.15,-14.01,0,*6F
1486400605.34,8453,11.69,72802.8,-6.43,-14.19,-14.01,0,*62
1486400606.57,8454,11.69,72806.5,-6.43,-14.15,-14.01,0,*69
1486400607.83,8455,11.69,72804.0,-6.43,-14.05,-14.01,0,*69
1486400609.07,8456,11.69,72806.3,-6.43,-14.15,-14.01,0,*6B
1486400610.31,8457,11.69,72804.3,-6.43,-14.15,-14.01,0,*6A
1486400611.54,8458,11.69,72806.8,-6.43,-14.19,-14.01,0,*69
1486400612.8,8459,11.69,72804.0,-6.45,-14.15,-14.01,0,*62
1486400614.04,8460,11.69,72804.8,-6.43,-14.15,-14.01,0,*6E
1486400615.28,8461,11.69,72804.8,-6.43,-14.15,-14.01,0,*6F
1486400616.51,8462,11.69,72804.0,-6.43,-14.19,-14.05,0,*64
1486400617.74,8463,11.69,72806.5,-6.43,-14.19,-14.01,0,*61
1486400618.97,8464,11.69,72806.5,-6.43,-14.19,-14.05,0,*62
1486400620.21,8465,11.69,72806.5,-6.43,-14.15,-14.05,0,*6F
1486400621.46,8466,11.69,72806.0,-6.43,-14.05,-14.05,0,*6D
1486400622.7,8467,11.69,72808.3,-6.43,-14.15,-14.01,0,*69
1486400623.94,8468,11.69,72804.8,-6.43,-14.15,-14.01,0,*66
1486400625.17,8469,11.69,72806.8,-6.43,-14.19,-14.01,0,*6B
1486400626.41,8470,11.69,72806.3,-6.43,-14.15,-14.01,0,*6F
1486400627.67,8471,11.69,72808.0,-6.43,-14.05,-14.01,0,*6F
1486400628.9,8472,11.69,72806.3,-6.43,-14.19,-14.01,0,*61
1486400630.13,8473,11.69,72806.5,-6.43,-14.19,-14.01,0,*60
1486400631.37,8474,11.69,72804.0,-6.43,-14.15,-14.05,0,*6F
1486400632.61,8475,11.69,72806.0,-6.43,-14.15,-14.01,0,*6A
1486400633.84,8476,11.69,72802.5,-6.43,-14.19,-14.01,0,*65
1486400635.07,8477,11.69,72804.5,-6.43,-14.19,-14.01,0,*64
1486400636.33,8478,11.69,72810.0,-6.45,-14.19,-14.05,0,*69
1486400637.59,8479,11.69,72804.3,-6.41,-14.15,-14.01,0,*64
1486400638.85,8480,11.69,72806.3,-6.41,-14.15,-14.01,0,*62
1486400640.09,8481,11.69,72806.5,-6.43,-14.15,-14.05,0,*65
1486400641.33,8482,11.69,72806.5,-6.43,-14.15,-14.01,0,*62
1486400642.55,8483,11.69,72806.8,-6.41,-14.11,-14.11,0,*64
1486400643.81,8484,11.69,72810.3,-6.41,-14.15,-14.01,0,*66
1486400645.04,8485,11.69,72808.5,-6.43,-14.19,-14.05,0,*6D
1486400646.25,8486,11.69,72804.5,-6.43,-14.19,-14.15,0,*6F
1486400647.46,8487,11.69,72806.0,-6.43,-14.15,-14.15,0,*62
1486400648.67,8488,11.69,72804.8,-6.43,-14.19,-14.19,0,*6D
1486400649.9,8489,11.69,72806.8,-6.43,-14.19,-14.01,0,*65
1486400651.13,8490,11.69,72802.0,-6.43,-14.19,-14.05,0,*69
1486400652.36,8491,11.69,72806.3,-6.43,-14.19,-14.05,0,*68
1486400653.57,8492,11.69,72802.3,-6.43,-14.19,-14.15,0,*6A
1486400654.8,8493,11.69,72806.0,-6.43,-14.19,-14.05,0,*6A
1486400656.03,8494,11.69,72804.8,-6.43,-14.19,-14.01,0,*69
1486400657.27,8495,11.69,72806.5,-6.43,-14.15,-14.05,0,*60
1486400658.5,8496,11.69,72804.3,-6.43,-14.19,-14.05,0,*6F
1486400659.73,8497,11.69,72806.0,-6.43,-14.19,-14.01,0,*6A
1486400661.0,8498,11.69,72806.5,-6.41,-14.15,-14.01,0,*6B
1486400662.25,8499,11.69,72806.0,-6.41,-14.23,-14.01,0,*6F
1486400663.52,8500,11.69,72804.5,-6.41,-14.23,-14.01,0,*6E
1486400664.75,8501,11.69,72804.3,-6.43,-14.19,-14.05,0,*60
1486400665.98,8502,11.69,72806.3,-6.43,-14.19,-14.05,0,*63
1486400667.21,8503,11.69,72804.8,-6.43,-14.19,-14.05,0,*62
1486400668.44,8504,11.69,72806.8,-6.43,-14.19,-14.05,0,*65
1486400669.7,8505,11.69,72806.0,-6.41,-14.15,-13.97,0,*66
1486400670.96,8506,11.69,72808.5,-6.41,-14.23,-13.97,0,*60
1486400672.22,8507,11.69,72806.0,-6.41,-14.23,-14.01,0,*69
1486400673.48,8508,11.69,72804.8,-6.41,-14.23,-13.97,0,*6E
1486400674.74,8509,11.69,72804.8,-6.41,-14.23,-14.01,0,*67
1486400676.0,8510,11.69,72806.3,-6.41,-14.23,-14.01,0,*6F
1486400677.2,8511,11.69,72802.8,-6.39,-14.37,-14.11,0,*65
1486400678.42,8512,11.69,72806.5,-6.41,-14.29,-14.11,0,*66
1486400679.64,8513,11.69,72806.5,-6.41,-14.29,-14.11,0,*67
1486400680.86,8514,11.69,72806.5,-6.41,-14.29,-14.11,0,*60
1486400682.1,8515,11.69,72806.0,-6.41,-14.23,-14.15,0,*6F
1486400683.32,8516,11.69,72808.3,-6.41,-14.29,-14.11,0,*62
1486400684.54,8517,11.69,72808.3,-6.41,-14.23,-14.11,0,*69
1486400685.76,8518,11.69,72808.0,-6.41,-14.29,-14.11,0,*6C
1486400686.97,8519,11.69,72806.3,-6.43,-14.29,-14.15,0,*6B
1486400688.16,8520,11.69,72808.0,-6.43,-14.29,-14.19,0,*6D
1486400689.39,8521,11.69,72806.5,-6.43,-14.33,-14.05,0,*6A
1486400690.61,8522,11.69,72804.3,-6.41,-14.29,-14.11,0,*65
1486400691.81,8523,11.69,72804.8,-6.43,-14.29,-14.15,0,*62
1486400693.01,8524,11.69,72808.0,-6.43,-14.33,-14.19,0,*62
1486400694.21,8525,11.69,72804.5,-6.43,-14.33,-14.15,0,*6F
1486400695.41,8526,11.69,72804.0,-6.43,-14.33,-14.29,0,*63
1486400696.64,8527,11.69,72806.0,-6.41,-14.37,-14.23,0,*6E
1486400697.87,8528,11.69,72806.0,-6.41,-14.29,-14.15,0,*6B
1486400699.09,8529,11.69,72806.3,-6.43,-14.43,-14.19,0,*68
1486400700.29,8530,11.69,72806.0,-6.43,-14.33,-14.19,0,*67
1486400701.52,8531,11.69,72806.8,-6.41,-14.29,-14.15,0,*63
1486400702.72,8532,11.69,72806.8,-6.43,-14.33,-14.19,0,*65
1486400703.96,8533,11.69,72806.8,-6.41,-14.43,-14.11,0,*69
1486400705.19,8534,11.69,72806.5,-6.41,-14.37,-14.15,0,*69
1486400706.42,8535,11.69,72806.0,-6.41,-14.37,-14.11,0,*6C
1486400707.64,8536,11.69,72810.0,-6.43,-14.43,-14.15,0,*6A
1486400708.87,8537,11.69,72806.5,-6.41,-14.29,-14.15,0,*65
1486400710.11,8538,11.69,72808.3,-6.41,-14.23,-14.15,0,*60
1486400711.34,8539,11.69,72806.8,-6.41,-14.37,-14.15,0,*64
1486400712.59,8540,11.69,72808.5,-6.41,-14.43,-14.15,0,*69
1486400713.82,8541,11.69,72806.8,-6.43,-14.47,-14.19,0,*62
1486400715.05,8542,11.69,72806.0,-6.41,-14.29,-14.15,0,*67
1486400716.28,8543,11.69,72806.5,-6.41,-14.37,-14.15,0,*69
1486400717.5,8544,11.69,72804.3,-6.41,-14.29,-14.11,0,*65
1486400718.73,8545,11.69,72804.3,-6.41,-14.29,-14.15,0,*60
1486400719.96,8546,11.69,72804.5,-6.41,-14.37,-14.15,0,*6C
1486400721.21,8547,11.69,72804.3,-6.41,-14.43,-14.11,0,*6A
1486400722.46,8548,11.69,72804.8,-6.41,-14.43,-14.15,0,*61
1486400723.68,8549,11.69,72804.5,-6.41,-14.37,-14.11,0,*67
1486400724.92,8550,11.69,72804.5,-6.43,-14.47,-14.15,0,*6E
1486400726.14,8551,11.69,72808.3,-6.43,-14.43,-14.19,0,*67
1486400727.37,8552,11.69,72808.8,-6.43,-14.47,-14.19,0,*60
1486400728.63,8553,11.69,72804.5,-6.43,-14.43,-14.05,0,*68
1486400729.85,8554,11.69,72806.3,-6.43,-14.33,-14.01,0,*6C
1486400731.08,8555,11.69,72808.8,-6.43,-14.43,-14.15,0,*6F
1486400732.31,8556,11.69,72808.3,-6.41,-14.37,-14.15,0,*6D
1486400733.57,8557,11.69,72804.5,-6.41,-14.43,-14.15,0,*6F
1486400734.82,8558,11.69,72804.0,-6.41,-14.43,-14.15,0,*60
1486400736.05,8559,11.69,72804.3,-6.41,-14.37,-14.15,0,*62
1486400737.3,8560,11.69,72804.5,-6.41,-14.43,-14.15,0,*6B
1486400738.55,8561,11.69,72806.5,-6.41,-14.43,-14.11,0,*6E
1486400739.8,8562,11.69,72806.0,-6.41,-14.43,-14.15,0,*69
1486400741.03,8563,11.69,72810.3,-6.41,-14.37,-14.11,0,*6F
1486400742.27,8564,11.69,72806.8,-6.41,-14.43,-14.11,0,*6B
1486400743.52,8565,11.69,72806.8,-6.41,-14.43,-14.11,0,*6A
1486400744.77,8566,11.69,72808.3,-6.41,-14.43,-14.11,0,*69
1486400746.02,8567,11.69,72806.5,-6.41,-14.43,-14.15,0,*6C
1486400747.25,8568,11.69,72810.8,-6.41,-14.37,-14.15,0,*60
1486400748.48,8569,11.69,72810.5,-6.43,-14.43,-14.15,0,*60
1486400749.71,8570,11.69,72806.8,-6.43,-14.47,-14.19,0,*60
1486400750.94,8571,11.69,72808.3,-6.43,-14.43,-14.15,0,*69
1486400752.2,8572,11.69,72804.8,-6.45,-14.47,-14.19,0,*64
1486400753.43,8573,11.69,72806.0,-6.43,-14.47,-14.19,0,*63
1486400754.66,8574,11.69,72804.5,-6.43,-14.51,-14.15,0,*6F
1486400755.89,8575,11.69,72806.3,-6.43,-14.51,-14.19,0,*62
1486400757.12,8576,11.69,72806.0,-6.43,-14.47,-14.19,0,*66
1486400758.35,8577,11.69,72804.8,-6.43,-14.51,-14.15,0,*6C
1486400759.58,8578,11.69,72806.0,-6.43,-14.51,-14.19,0,*6F
1486400760.81,8579,11.69,72804.3,-6.43,-14.51,-14.19,0,*6E
1486400762.04,8580,11.69,72804.0,-6.43,-14.51,-14.19,0,*68
1486400763.27,8581,11.69,72804.5,-6.43,-14.51,-14.19,0,*69
1486400764.52,8582,11.69,72808.3,-6.45,-14.51,-14.19,0,*6C
1486400765.75,8583,11.69,72806.0,-6.43,-14.51,-14.15,0,*67
1486400766.99,8584,11.69,72808.0,-6.43,-14.47,-14.19,0,*6B
1486400768.22,8585,11.69,72804.5,-6.43,-14.47,-14.15,0,*66
1486400769.47,8586,11.69,72806.0,-6.41,-14.43,-14.11,0,*67
1486400770.7,8587,11.69,72806.8,-6.43,-14.47,-14.15,0,*64
1486400771.94,8588,11.69,72806.0,-6.43,-14.47,-14.15,0,*6B
1486400773.19,8589,11.69,72804.8,-6.41,-14.43,-14.15,0,*6C
1486400774.45,8590,11.69,72808.8,-6.41,-14.47,-14.11,0,*64
1486400775.7,8591,11.69,72808.0,-6.41,-14.55,-14.15,0,*62
1486400776.96,8592,11.69,72804.0,-6.41,-14.47,-14.15,0,*62
1486400778.22,8593,11.69,72804.5,-6.41,-14.47,-14.11,0,*67
1486400779.47,8594,11.69,72806.5,-6.41,-14.47,-14.11,0,*60
1486400780.73,8595,11.69,72806.3,-6.41,-14.47,-14.11,0,*61
1486400781.96,8596,11.69,72806.5,-6.43,-14.51,-14.15,0,*63
1486400783.21,8597,11.69,72808.3,-6.43,-14.51,-14.05,0,*63
1486400784.44,8598,11.69,72804.3,-6.43,-14.51,-14.15,0,*6D
1486400785.67,8599,11.69,72806.0,-6.43,-14.51,-14.19,0,*60
1486400786.91,8600,11.69,72806.5,-6.43,-14.51,-14.15,0,*6F
1486400788.14,8601,11.69,72804.0,-6.43,-14.51,-14.15,0,*6E
1486400789.39,8602,11.69,72806.3,-6.43,-14.51,-14.05,0,*6C
1486400790.62,8603,11.69,72804.5,-6.43,-14.51,-14.15,0,*6C
1486400791.82,8604,11.69,72806.5,-6.43,-14.61,-14.15,0,*68
1486400793.06,8605,11.69,72808.8,-6.43,-14.51,-14.15,0,*6A
1486400794.3,8606,11.69,72804.3,-6.45,-14.61,-14.05,0,*6D
1486400795.54,8607,11.69,72808.0,-6.43,-14.51,-14.15,0,*68
1486400796.79,8608,11.69,72808.8,-6.43,-14.47,-14.05,0,*61
1486400798.03,8609,11.69,72806.8,-6.43,-14.51,-14.15,0,*66
1486400799.26,8610,11.69,72806.3,-6.43,-14.51,-14.19,0,*62
1486400800.51,8611,11.69,72806.5,-6.43,-14.51,-14.05,0,*6E
1486400801.77,8612,11.69,72804.3,-6.43,-14.51,-14.05,0,*6D
1486400803.02,8613,11.69,72808.3,-6.43,-14.51,-14.05,0,*6C
1486400804.22,8614,11.69,72804.8,-6.43,-14.61,-14.15,0,*69
1486400805.45,8615,11.69,72804.8,-6.43,-14.51,-14.15,0,*6B
1486400806.71,8616,11.69,72804.8,-6.45,-14.47,-14.15,0,*69
1486400807.91,8617,11.69,72804.0,-6.43,-14.61,-14.15,0,*6A
1486400809.17,8618,11.69,72804.0,-6.43,-14.47,-14.05,0,*60
1486400810.43,8619,11.69,72808.0,-6.43,-14.51,-14.05,0,*66
1486400811.62,8620,11.69,72804.3,-6.43,-14.61,-14.19,0,*62
1486400812.88,8621,11.69,72806.8,-6.43,-14.51,-14.01,0,*69
1486400814.1,8622,11.69,72808.3,-6.43,-14.61,-14.05,0,*6D
1486400815.35,8623,11.69,72806.0,-6.45,-14.61,-14.05,0,*6A
1486400816.55,8624,11.69,72806.5,-6.43,-14.61,-14.15,0,*6A
1486400817.78,8625,11.69,72804.8,-6.43,-14.51,-14.15,0,*68
1486400819.02,8626,11.69,72808.0,-6.43,-14.51,-14.15,0,*6B
1486400820.27,8627,11.69,72806.3,-6.43,-14.51,-14.01,0,*6F
1486400821.56,8628,11.69,72806.3,-6.41,-14.55,-14.01,0,*66
1486400822.84,8629,11.69,72806.5,-6.41,-14.47,-14.01,0,*64
1486400824.09,8630,11.69,72804.8,-6.41,-14.55,-14.11,0,*6E
1486400825.37,8631,11.69,72810.5,-6.41,-14.55,-14.01,0,*6E
1486400826.59,8632,11.69,72806.3,-6.43,-14.61,-14.05,0,*6C
1486400827.85,8633,11.69,72806.5,-6.43,-14.51,-14.05,0,*6E
1486400829.08,8634,11.69,72810.0,-6.43,-14.51,-14.15,0,*68
1486400830.31,8635,11.69,72804.5,-6.43,-14.61,-14.01,0,*6F
1486400831.54,8636,11.69,72806.8,-6.43,-14.51,-14.15,0,*6A
1486400832.74,8637,11.69,72804.8,-6.43,-14.61,-14.15,0,*68
1486400833.99,8638,11.69,72806.3,-6.43,-14.51,-14.05,0,*65
1486400835.19,8639,11.69,72808.0,-6.43,-14.65,-14.15,0,*62
1486400836.41,8640,11.69,72804.3,-6.43,-14.61,-14.05,0,*69
1486400837.7,8641,11.69,72804.8,-6.45,-14.51,-14.01,0,*69
1486400838.95,8642,11.69,72804.5,-6.45,-14.61,-14.05,0,*6D
1486400840.17,8643,11.69,72806.3,-6.43,-14.61,-14.05,0,*6A
1486400841.39,8644,11.69,72806.8,-6.43,-14.61,-14.05,0,*6D
1486400842.62,8645,11.69,72804.8,-6.43,-14.61,-14.05,0,*6C
1486400843.9,8646,11.69,72810.8,-6.45,-14.51,-14.05,0,*6A
1486400845.12,8647,11.69,72804.3,-6.43,-14.61,-14.01,0,*6A
1486400846.32,8648,11.69,72810.5,-6.43,-14.61,-14.15,0,*60
1486400847.58,8649,11.69,72806.0,-6.43,-14.51,-14.05,0,*63
1486400848.8,8650,11.69,72804.5,-6.43,-14.61,-14.05,0,*68
1486400850.02,8651,11.69,72806.0,-6.43,-14.61,-14.05,0,*69
1486400851.24,8652,11.69,72810.0,-6.43,-14.61,-14.05,0,*6A
1486400852.5,8653,11.69,72806.8,-6.43,-14.51,-14.05,0,*68
1486400853.72,8654,11.69,72808.0,-6.43,-14.61,-14.05,0,*6C
1486400854.97,8655,11.69,72806.0,-6.45,-14.61,-14.05,0,*6B
1486400856.2,8656,11.69,72806.5,-6.43,-14.61,-14.01,0,*6A
1486400857.42,8657,11.69,72806.0,-6.43,-14.61,-14.01,0,*6B
1486400858.67,8658,11.69,72806.3,-6.45,-14.65,-14.05,0,*62
1486400859.89,8659,11.69,72806.3,-6.43,-14.61,-14.05,0,*61
1486400861.14,8660,11.69,72806.5,-6.45,-14.65,-14.01,0,*6D
1486400862.37,8661,11.69,72808.0,-6.43,-14.61,-14.01,0,*6E
1486400863.59,8662,11.69,72804.5,-6.43,-14.61,-14.01,0,*6D
1486400864.85,8663,11.69,72804.0,-6.43,-14.51,-14.01,0,*6F
1486400866.08,8664,11.69,72808.8,-6.43,-14.61,-14.01,0,*6B
1486400867.33,8665,11.69,72808.5,-6.43,-14.51,-14.05,0,*6D
1486400868.58,8666,11.69,72808.8,-6.45,-14.61,-14.05,0,*6B
1486400869.84,8667,11.69,72804.5,-6.43,-14.51,-14.05,0,*6F
1486400871.09,8668,11.69,72808.8,-6.43,-14.51,-14.01,0,*64
1486400872.34,8669,11.69,72808.8,-6.45,-14.61,-14.05,0,*64
1486400873.59,8670,11.69,72810.0,-6.45,-14.61,-14.01,0,*68
1486400874.84,8671,11.69,72808.3,-6.45,-14.61,-14.01,0,*69
1486400876.1,8672,11.69,72806.3,-6.45,-14.61,-14.01,0,*6A
1486400877.38,8673,11.69,72808.0,-6.45,-14.51,-14.05,0,*6C
1486400878.63,8674,11.69,72804.3,-6.45,-14.61,-14.01,0,*6C
1486400879.85,8675,11.69,72808.3,-6.43,-14.61,-14.01,0,*6B
1486400881.08,8676,11.69,72806.5,-6.43,-14.61,-14.01,0,*68
1486400882.31,8677,11.69,72808.5,-6.43,-14.61,-14.01,0,*69
1486400883.53,8678,11.69,72808.0,-6.43,-14.61,-14.01,0,*66
1486400884.79,8679,11.69,72810.3,-6.43,-14.51,-14.01,0,*64
1486400886.04,8680,11.69,72806.0,-6.45,-14.61,-14.01,0,*67
1486400887.3,8681,11.69,72806.8,-6.43,-14.51,-14.05,0,*67
1486400888.52,8682,11.69,72806.0,-6.43,-14.61,-14.01,0,*63
1486400889.74,8683,11.69,72804.8,-6.43,-14.65,-14.01,0,*66
1486400890.97,8684,11.69,72806.0,-6.43,-14.61,-14.01,0,*65
1486400892.25,8685,11.69,72808.0,-6.45,-14.51,-14.05,0,*65
1486400893.48,8686,11.69,72806.5,-6.43,-14.61,-14.01,0,*67
1486400894.73,8687,11.69,72808.8,-6.45,-14.61,-14.01,0,*60
1486400896.01,8688,11.69,72808.5,-6.45,-14.51,-14.01,0,*6C
1486400897.24,8689,11.69,72808.3,-6.43,-14.61,-14.01,0,*68
1486400898.49,8690,11.69,72804.8,-6.45,-14.61,-14.01,0,*66
1486400899.71,8691,11.69,72804.5,-6.43,-14.61,-14.05,0,*65
1486400900.96,8692,11.69,72810.8,-6.45,-14.61,-14.01,0,*64
1486400902.21,8693,11.69,72806.8,-6.45,-14.61,-14.01,0,*65
1486400903.46,8694,11.69,72806.3,-6.45,-14.61,-14.05,0,*66